Location: Peebles
(55.6412°N, 3.1714°W)
Time: 19:59:32
(UTC+00:00)

Cosmos 2297 - Visible Passes

Search period start: 19 January 2022 00:00
Search period end: 29 January 2022 00:00
Orbit: 838 x 856 km, 71.0° (Epoch: 19 January)

Date Brightness Start Highest point End Pass type
(mag) Time Alt. Az. Time Alt. Az. Time Alt. Az.
19 Jan 5.2 17:36:35 10° SE 17:40:01 17° E 17:41:56 14° ENE visible
19 Jan 3.5 19:17:37 10° SSW 19:23:16 73° ESE 19:23:54 66° ENE visible
19 Jan 5.5 21:02:47 10° WSW 21:05:53 27° WNW 21:05:53 27° WNW visible
20 Jan 5.2 17:23:15 10° SE 17:26:37 16° E 17:29:32 11° ENE visible
20 Jan 3.6 19:04:12 10° SSW 19:09:51 72° ESE 19:11:30 46° NE visible
20 Jan 5.2 20:49:20 10° WSW 20:53:28 32° WNW 20:53:28 32° WNW visible
21 Jan 5.3 17:09:55 10° SE 17:13:13 16° E 17:16:31 10° ENE visible
21 Jan 3.6 18:50:47 10° SSW 18:56:26 71° ESE 18:59:01 33° NE visible
21 Jan 5.0 20:35:54 10° WSW 20:40:58 35° NW 20:40:58 35° NW visible
22 Jan 3.6 18:37:23 10° SSW 18:43:01 70° ESE 18:46:25 25° NE visible
22 Jan 4.9 20:22:27 10° WSW 20:27:38 35° NW 20:28:23 34° NNW visible
22 Jan 6.5 22:09:38 10° NW 22:10:20 12° NW 22:10:20 12° NW visible
23 Jan 3.6 18:23:59 10° SSW 18:29:36 69° ESE 18:33:45 19° NE visible
23 Jan 5.0 20:09:01 10° WSW 20:14:12 36° NW 20:15:42 31° N visible
23 Jan 6.3 21:56:11 10° NW 21:57:39 15° NW 21:57:39 15° NW visible
24 Jan 3.7 18:10:34 10° SSW 18:16:11 68° ESE 18:21:02 14° NE visible
24 Jan 5.0 19:55:34 10° WSW 20:00:46 36° NW 20:02:59 27° N visible
24 Jan 6.2 21:42:44 10° WNW 21:44:55 16° NW 21:44:55 16° NW visible
25 Jan 3.7 17:57:10 10° SSW 18:02:46 67° ESE 18:08:15 11° NE visible
25 Jan 4.9 19:42:07 10° WSW 19:47:21 37° NW 19:50:11 23° NNE visible
25 Jan 6.0 21:29:17 10° WNW 21:32:08 18° NNW 21:32:08 18° NNW visible
26 Jan 3.7 17:43:45 10° SSW 17:49:21 65° ESE 17:54:58 10° NE visible
26 Jan 4.9 19:28:41 10° WSW 19:33:55 37° NW 19:37:21 19° NNE visible
26 Jan 5.9 21:15:49 10° WNW 21:19:18 18° NNW 21:19:18 18° NNW visible
27 Jan 3.8 17:30:21 10° SSW 17:35:57 64° ESE 17:41:33 10° NE visible
27 Jan 4.9 19:15:14 10° WSW 19:20:29 38° NW 19:24:28 16° NNE visible
27 Jan 5.8 21:02:22 10° WNW 21:06:18 19° NNW 21:06:24 19° NNW visible
28 Jan 3.8 17:16:57 10° SSW 17:22:32 63° ESE 17:28:07 10° NE visible
28 Jan 4.9 19:01:47 10° WSW 19:07:03 38° NW 19:11:33 14° NNE visible
28 Jan 5.8 20:48:55 10° WNW 20:52:51 19° NNW 20:53:29 18° N visible
28 Jan 6.6 22:35:20 10° NNW 22:35:25 10° NNW 22:35:25 10° NNW visible
